Time,TemperatureF,DewpointF,PressureIn,WindDirection,WindDirectionDegrees,WindSpeedMPH,WindSpeedGustMPH,Humidity,HourlyPrecipIn,Conditions,Clouds,dailyrainin,SolarRadiationWatts/m^2,SoftwareType,DateUTC
2013-04-10 00:03:00,30.7,18.8,30.20,NE,54,9.2,9.2,61,0.00,CLR,OVC,0.00,0.0,WeatherDisplay:10.37,2013-04-10 05:03:00,
2013-04-10 00:08:00,30.7,19.2,30.20,NE,52,9.2,9.2,62,0.00,CLR,OVC,0.00,0.0,WeatherDisplay:10.37,2013-04-10 05:08:00,
2013-04-10 00:13:00,30.6,19.9,30.20,North,8,11.5,11.5,64,0.00,CLR,OVC,0.00,0.0,WeatherDisplay:10.37,2013-04-10 05:13:00,
2013-04-10 00:18:00,30.6,19.5,30.20,NE,50,10.4,10.4,63,0.00,CLR,OVC,0.00,0.0,WeatherDisplay:10.37,2013-04-10 05:18:00,
2013-04-10 00:23:00,30.4,19.3,30.20,ENE,60,13.0,13.0,63,0.00,CLR,OVC,0.00,0.0,WeatherDisplay:10.37,2013-04-10 05:23:00,
2013-04-10 00:29:00,30.4,19.7,30.21,NE,38,11.0,11.0,64,0.00,CLR,OVC,0.00,0.0,WeatherDisplay:10.37,2013-04-10 05:29:00,
2013-04-10 00:34:00,30.4,19.7,30.21,ENE,57,13.8,13.8,64,0.00,CLR,OVC,0.00,0.0,WeatherDisplay:10.37,2013-04-10 05:34:00,
2013-04-10 00:39:00,30.6,19.9,30.22,ENE,60,9.2,9.2,64,0.00,CLR,OVC,0.00,0.0,WeatherDisplay:10.37,2013-04-10 05:39:00,
2013-04-10 00:44:00,30.6,19.9,30.22,ENE,68,10.0,10.0,64,0.00,CLR,OVC,0.00,0.0,WeatherDisplay:10.37,2013-04-10 05:44:00,
2013-04-10 00:49:00,30.6,19.9,30.22,NE,52,9.0,14.0,64,0.00,CLR,OVC,0.00,0.0,WeatherDisplay:10.37,2013-04-10 05:49:00,
2013-04-10 00:54:00,30.6,19.9,30.22,NNE,32,9.0,9.0,64,0.00,CLR,OVC,0.00,0.0,WeatherDisplay:10.37,2013-04-10 05:54:00,
2013-04-10 00:59:00,30.6,19.9,30.23,ENE,61,7.0,7.0,64,0.00,CLR,OVC,0.00,0.0,WeatherDisplay:10.37,2013-04-10 05:59:00,
2013-04-10 01:04:00,30.6,19.9,30.23,ENE,61,6.9,6.9,64,0.00,CLR,OVC,0.00,0.0,WeatherDisplay:10.37,2013-04-10 06:04:00,
2013-04-10 01:09:00,30.4,19.7,30.24,NE,45,6.9,6.9,64,0.00,CLR,OVC,0.00,0.0,WeatherDisplay:10.37,2013-04-10 06:09:00,
2013-04-10 01:15:00,30.4,20.0,30.24,North,4,9.2,9.2,65,0.00,CLR,OVC,0.00,0.0,WeatherDisplay:10.37,2013-04-10 06:15:00,
2013-04-10 01:20:00,30.4,20.0,30.24,NE,54,10.0,10.0,65,0.00,CLR,OVC,0.00,0.0,WeatherDisplay:10.37,2013-04-10 06:20:00,
2013-04-10 01:25:00,30.4,19.7,30.24,NNE,17,6.9,6.9,64,0.00,CLR,OVC,0.00,0.0,WeatherDisplay:10.37,2013-04-10 06:25:00,
2013-04-10 01:30:00,30.4,19.7,30.25,NE,52,7.0,7.0,64,0.00,CLR,OVC,0.00,0.0,WeatherDisplay:10.37,2013-04-10 06:30:00,
2013-04-10 01:35:00,30.4,19.7,30.25,NNE,30,4.6,4.6,64,0.00,CLR,OVC,0.00,0.0,WeatherDisplay:10.37,2013-04-10 06:35:00,
2013-04-10 01:40:00,30.4,20.0,30.25,NE,54,6.9,6.9,65,0.00,CLR,OVC,0.00,0.0,WeatherDisplay:10.37,2013-04-10 06:40:00,
2013-04-10 01:45:00,30.3,20.3,30.25,NNE,30,8.0,8.0,66,0.00,CLR,OVC,0.00,0.0,WeatherDisplay:10.37,2013-04-10 06:45:00,
2013-04-10 01:51:00,30.3,19.9,30.25,NNE,26,8.1,8.1,65,0.00,CLR,OVC,0.00,0.0,WeatherDisplay:10.37,2013-04-10 06:51:00,
2013-04-10 01:56:00,30.3,19.9,30.25,NNE,27,6.9,6.9,65,0.00,CLR,OVC,0.00,0.0,WeatherDisplay:10.37,2013-04-10 06:56:00,
2013-04-10 02:01:00,30.3,20.3,30.25,NNE,26,6.9,6.9,66,0.00,CLR,OVC,0.00,0.0,WeatherDisplay:10.37,2013-04-10 07:01:00,
2013-04-10 02:06:00,30.3,19.9,30.25,ENE,59,6.9,6.9,65,0.00,CLR,OVC,0.00,0.0,WeatherDisplay:10.37,2013-04-10 07:06:00,
2013-04-10 02:11:00,30.1,20.1,30.25,NNE,12,7.0,7.0,66,0.00,CLR,OVC,0.00,0.0,WeatherDisplay:10.37,2013-04-10 07:11:00,
2013-04-10 02:16:00,30.1,20.1,30.24,NE,43,4.6,4.6,66,0.00,CLR,OVC,0.00,0.0,WeatherDisplay:10.37,2013-04-10 07:16:00,
2013-04-10 02:21:00,30.1,20.5,30.24,NNE,28,9.2,9.2,67,0.00,CLR,OVC,0.00,0.0,WeatherDisplay:10.37,2013-04-10 07:21:00,
2013-04-10 02:26:00,30.0,20.4,30.24,NE,35,9.2,9.2,67,0.00,CLR,OVC,0.00,0.0,WeatherDisplay:10.37,2013-04-10 07:26:00,
2013-04-10 02:31:00,30.0,20.4,30.24,NNE,29,8.0,8.0,67,0.00,CLR,OVC,0.00,0.0,WeatherDisplay:10.37,2013-04-10 07:31:00,
2013-04-10 02:37:00,29.8,20.5,30.25,NE,56,8.0,8.0,68,0.00,CLR,OVC,0.00,0.0,WeatherDisplay:10.37,2013-04-10 07:37:00,
2013-04-10 02:42:00,29.8,20.5,30.25,NE,35,9.2,9.2,68,0.00,CLR,OVC,0.00,0.0,WeatherDisplay:10.37,2013-04-10 07:42:00,
2013-04-10 02:47:00,29.7,20.1,30.25,NE,38,5.8,5.8,67,0.00,CLR,OVC,0.00,0.0,WeatherDisplay:10.37,2013-04-10 07:47:00,
2013-04-10 02:52:00,29.7,20.4,30.24,NE,37,8.0,8.0,68,0.00,CLR,OVC,0.00,0.0,WeatherDisplay:10.37,2013-04-10 07:52:00,
2013-04-10 02:57:00,29.5,20.2,30.24,NE,42,9.2,9.2,68,0.00,CLR,OVC,0.00,0.0,WeatherDisplay:10.37,2013-04-10 07:57:00,
2013-04-10 03:02:00,29.5,20.6,30.25,NE,50,2.3,2.3,69,0.00,CLR,OVC,0.00,0.0,WeatherDisplay:10.37,2013-04-10 08:02:00,
2013-04-10 03:07:00,29.4,20.5,30.25,NE,42,4.6,4.6,69,0.00,CLR,OVC,0.00,0.0,WeatherDisplay:10.37,2013-04-10 08:07:00,
2013-04-10 03:12:00,29.4,20.5,30.25,NNE,32,4.6,4.6,69,0.00,CLR,OVC,0.00,0.0,WeatherDisplay:10.37,2013-04-10 08:12:00,
2013-04-10 03:18:00,29.4,20.5,30.24,NE,47,5.0,5.0,69,0.00,CLR,OVC,0.00,0.0,WeatherDisplay:10.37,2013-04-10 08:18:00,
2013-04-10 03:23:00,29.3,20.4,30.24,NNE,28,8.1,8.1,69,0.00,CLR,OVC,0.00,0.0,WeatherDisplay:10.37,2013-04-10 08:23:00,
2013-04-10 03:28:00,29.1,20.5,30.23,NE,42,10.4,10.4,70,0.00,CLR,OVC,0.00,0.0,WeatherDisplay:10.37,2013-04-10 08:28:00,
2013-04-10 03:33:00,29.1,20.5,30.22,NE,46,6.9,6.9,70,0.00,CLR,OVC,0.00,0.0,WeatherDisplay:10.37,2013-04-10 08:33:00,
2013-04-10 03:38:00,29.1,20.5,30.21,NE,50,6.0,6.0,70,0.00,CLR,OVC,0.00,0.0,WeatherDisplay:10.37,2013-04-10 08:38:00,
2013-04-10 03:43:00,29.0,20.4,30.20,NNE,27,8.1,8.1,70,0.00,CLR,OVC,0.00,0.0,WeatherDisplay:10.37,2013-04-10 08:43:00,
2013-04-10 03:48:00,28.8,20.2,30.19,NE,40,11.5,11.5,70,0.00,CLR,OVC,0.00,0.0,WeatherDisplay:10.37,2013-04-10 08:48:00,
2013-04-10 03:53:00,28.8,20.2,30.18,NE,44,13.0,13.0,70,0.00,CLR,OVC,0.00,0.0,WeatherDisplay:10.37,2013-04-10 08:53:00,
2013-04-10 03:59:00,28.7,20.1,30.17,ENE,77,11.5,11.5,70,0.00,CLR,OVC,0.00,0.0,WeatherDisplay:10.37,2013-04-10 08:59:00,
2013-04-10 04:04:00,28.5,20.3,30.16,NE,44,12.7,12.7,71,0.00,CLR,OVC,0.00,0.0,WeatherDisplay:10.37,2013-04-10 09:04:00,
2013-04-10 04:09:00,28.4,20.2,30.16,NNE,29,13.8,13.8,71,0.00,CLR,OVC,0.00,0.0,WeatherDisplay:10.37,2013-04-10 09:09:00,
2013-04-10 04:14:00,28.4,20.2,30.15,NNE,16,11.5,11.5,71,0.00,CLR,OVC,0.00,0.0,WeatherDisplay:10.37,2013-04-10 09:14:00,
2013-04-10 04:19:00,28.2,20.3,30.14,NE,50,8.0,14.0,72,0.00,CLR,OVC,0.00,0.0,WeatherDisplay:10.37,2013-04-10 09:19:00,
2013-04-10 04:24:00,28.2,20.3,30.13,NE,46,13.8,13.8,72,0.00,CLR,OVC,0.00,0.0,WeatherDisplay:10.37,2013-04-10 09:24:00,
2013-04-10 04:29:00,28.1,20.2,30.14,NNE,30,12.7,12.7,72,0.00,CLR,OVC,0.00,0.0,WeatherDisplay:10.37,2013-04-10 09:29:00,
2013-04-10 04:34:00,27.9,20.0,30.15,NE,54,12.0,12.0,72,0.00,CLR,OVC,0.00,0.0,WeatherDisplay:10.37,2013-04-10 09:34:00,
2013-04-10 04:39:00,27.9,20.4,30.15,NE,38,16.1,16.1,73,0.00,CLR,OVC,0.00,0.0,WeatherDisplay:10.37,2013-04-10 09:39:00,
2013-04-10 04:45:00,27.8,19.9,30.15,NE,42,11.5,11.5,72,0.00,CLR,OVC,0.00,0.0,WeatherDisplay:10.37,2013-04-10 09:45:00,
2013-04-10 04:50:00,27.8,20.3,30.16,NE,38,12.0,12.0,73,0.00,CLR,OVC,0.00,0.0,WeatherDisplay:10.37,2013-04-10 09:50:00,
2013-04-10 04:55:00,27.8,20.6,30.17,NNE,32,10.0,10.0,74,0.00,CLR,OVC,0.00,0.0,WeatherDisplay:10.37,2013-04-10 09:55:00,
2013-04-10 05:00:00,27.8,20.6,30.17,NNE,31,16.0,16.0,74,0.00,CLR,OVC,0.00,0.0,WeatherDisplay:10.37,2013-04-10 10:00:00,
2013-04-10 05:05:00,27.8,20.9,30.17,NE,54,11.5,11.5,75,0.00,CLR,OVC,0.00,0.0,WeatherDisplay:10.37,2013-04-10 10:05:00,
2013-04-10 05:10:00,27.8,20.9,30.17,NE,51,11.5,11.5,75,0.00,CLR,OVC,0.00,0.0,WeatherDisplay:10.37,2013-04-10 10:10:00,
2013-04-10 05:15:00,27.8,21.2,30.19,North,1,10.4,10.4,76,0.00,CLR,OVC,0.00,0.0,WeatherDisplay:10.37,2013-04-10 10:15:00,
2013-04-10 05:21:00,27.8,21.2,30.19,NE,34,11.0,11.0,76,0.00,CLR,OVC,0.00,0.0,WeatherDisplay:10.37,2013-04-10 10:21:00,
2013-04-10 05:26:00,27.8,21.5,30.19,NE,44,10.4,10.4,77,0.00,CLR,OVC,0.00,0.0,WeatherDisplay:10.37,2013-04-10 10:26:00,
2013-04-10 05:31:00,27.8,22.1,30.21,NE,44,8.1,8.1,79,0.00,CLR,OVC,0.00,0.0,WeatherDisplay:10.37,2013-04-10 10:31:00,
2013-04-10 05:36:00,27.8,22.4,30.20,NNE,19,11.5,11.5,80,0.00,CLR,OVC,0.00,0.0,WeatherDisplay:10.37,2013-04-10 10:36:00,
2013-04-10 05:42:00,27.8,22.7,30.20,NE,40,8.1,8.1,81,0.00,CLR,OVC,0.00,0.0,WeatherDisplay:10.37,2013-04-10 10:42:00,
2013-04-10 05:47:00,27.8,23.0,30.21,NNE,27,11.5,11.5,82,0.00,CLR,OVC,0.00,0.0,WeatherDisplay:10.37,2013-04-10 10:47:00,
2013-04-10 05:52:00,27.8,23.3,30.23,North,2,10.0,10.0,83,0.00,CLR,OVC,0.00,0.0,WeatherDisplay:10.37,2013-04-10 10:52:00,
2013-04-10 05:57:00,27.9,23.4,30.25,North,356,9.2,9.2,83,0.00,CLR,OVC,0.00,0.0,WeatherDisplay:10.37,2013-04-10 10:57:00,
2013-04-10 06:02:00,27.9,23.4,30.26,NNE,19,4.6,4.6,83,0.00,CLR,OVC,0.00,0.0,WeatherDisplay:10.37,2013-04-10 11:02:00,
2013-04-10 06:07:00,27.9,23.7,30.26,NNE,26,6.9,6.9,84,0.00,CLR,OVC,0.00,0.0,WeatherDisplay:10.37,2013-04-10 11:07:00,
2013-04-10 06:12:00,27.9,23.7,30.26,NNE,33,4.6,4.6,84,0.00,CLR,OVC,0.00,0.0,WeatherDisplay:10.37,2013-04-10 11:12:00,
2013-04-10 06:17:00,27.9,23.7,30.25,NNE,14,9.2,9.2,84,0.00,CLR,OVC,0.00,0.0,WeatherDisplay:10.37,2013-04-10 11:17:00,
2013-04-10 06:22:00,27.9,23.7,30.24,ENE,57,6.9,6.9,84,0.00,CLR,OVC,0.00,0.0,WeatherDisplay:10.37,2013-04-10 11:22:00,
2013-04-10 06:27:00,27.9,23.7,30.24,NE,55,9.0,9.0,84,0.00,CLR,OVC,0.00,0.0,WeatherDisplay:10.37,2013-04-10 11:27:00,
2013-04-10 06:33:00,27.9,23.7,30.22,NE,36,11.0,11.0,84,0.00,CLR,OVC,0.00,0.0,WeatherDisplay:10.37,2013-04-10 11:33:00,
2013-04-10 06:38:00,27.9,24.0,30.22,NE,47,11.0,11.0,85,0.00,CLR,OVC,0.00,0.0,WeatherDisplay:10.37,2013-04-10 11:38:00,
2013-04-10 06:43:00,27.9,24.0,30.21,ENE,71,10.4,10.4,85,0.00,CLR,OVC,0.00,0.0,WeatherDisplay:10.37,2013-04-10 11:43:00,
2013-04-10 06:48:00,27.9,24.0,30.22,NE,48,9.2,9.2,85,0.00,CLR,OVC,0.00,0.0,WeatherDisplay:10.37,2013-04-10 11:48:00,
2013-04-10 06:53:00,27.9,24.0,30.22,NE,44,9.2,9.2,85,0.00,CLR,OVC,0.00,0.0,WeatherDisplay:10.37,2013-04-10 11:53:00,
2013-04-10 06:58:00,27.9,24.3,30.22,NE,42,10.4,10.4,86,0.00,CLR,OVC,0.00,0.0,WeatherDisplay:10.37,2013-04-10 11:58:00,
2013-04-10 07:03:00,27.9,24.3,30.21,ENE,60,11.5,11.5,86,0.00,CLR,OVC,0.00,0.0,WeatherDisplay:10.37,2013-04-10 12:03:00,
2013-04-10 07:08:00,28.1,24.5,30.20,NE,50,16.1,16.1,86,0.00,CLR,OVC,0.00,0.0,WeatherDisplay:10.37,2013-04-10 12:08:00,
2013-04-10 07:13:00,28.1,24.5,30.20,ENE,65,10.4,10.4,86,0.00,CLR,OVC,0.00,0.0,WeatherDisplay:10.37,2013-04-10 12:13:00,
2013-04-10 07:19:00,28.1,24.5,30.18,ENE,59,15.0,15.0,86,0.00,CLR,OVC,0.00,0.0,WeatherDisplay:10.37,2013-04-10 12:19:00,
2013-04-10 07:24:00,28.2,24.6,30.17,ENE,66,14.0,14.0,86,0.00,CLR,OVC,0.00,0.0,WeatherDisplay:10.37,2013-04-10 12:24:00,
2013-04-10 07:29:00,28.2,24.6,30.17,NE,40,15.0,15.0,86,0.00,CLR,OVC,0.00,0.0,WeatherDisplay:10.37,2013-04-10 12:29:00,
2013-04-10 07:34:00,28.2,24.6,30.16,ENE,65,16.0,16.0,86,0.00,CLR,OVC,0.00,0.0,WeatherDisplay:10.37,2013-04-10 12:34:00,
2013-04-10 07:39:00,28.4,24.7,30.17,ENE,61,10.0,17.0,86,0.00,CLR,OVC,0.00,0.0,WeatherDisplay:10.37,2013-04-10 12:39:00,
2013-04-10 07:44:00,28.5,24.6,30.17,ENE,62,16.1,16.1,85,0.00,CLR,OVC,0.00,0.0,WeatherDisplay:10.37,2013-04-10 12:44:00,
2013-04-10 07:49:00,28.7,24.8,30.16,ENE,66,9.0,20.0,85,0.00,CLR,OVC,0.00,0.0,WeatherDisplay:10.37,2013-04-10 12:49:00,
2013-04-10 07:54:00,29.0,24.8,30.16,NE,44,16.1,16.1,84,0.00,CLR,OVC,0.00,0.0,WeatherDisplay:10.37,2013-04-10 12:54:00,
2013-04-10 07:59:00,29.4,24.9,30.16,ENE,69,21.9,21.9,83,0.00,OVC,,0.00,0.0,WeatherDisplay:10.37,2013-04-10 12:59:00,
2013-04-10 08:04:00,29.5,24.4,30.15,ENE,58,18.4,18.4,81,0.00,OVC,,0.00,0.0,WeatherDisplay:10.37,2013-04-10 13:04:00,
2013-04-10 08:09:00,29.7,24.3,30.15,ENE,67,16.0,16.0,80,0.00,OVC,,0.00,0.0,WeatherDisplay:10.37,2013-04-10 13:09:00,
2013-04-10 08:15:00,30.0,24.3,30.15,ENE,63,13.0,13.0,79,0.00,OVC,,0.00,0.0,WeatherDisplay:10.37,2013-04-10 13:15:00,
2013-04-10 08:20:00,30.3,24.0,30.16,ENE,59,16.1,16.1,77,0.00,OVC,,0.00,0.0,WeatherDisplay:10.37,2013-04-10 13:20:00,
2013-04-10 08:25:00,30.7,24.0,30.16,ENE,59,14.0,14.0,76,0.00,OVC,,0.00,0.0,WeatherDisplay:10.37,2013-04-10 13:25:00,
2013-04-10 08:30:00,31.0,23.4,30.16,NE,54,15.0,15.0,73,0.00,OVC,,0.00,0.0,WeatherDisplay:10.37,2013-04-10 13:30:00,
2013-04-10 08:35:00,31.5,23.5,30.15,NE,42,17.3,17.3,72,0.00,OVC,,0.00,0.0,WeatherDisplay:10.37,2013-04-10 13:35:00,
2013-04-10 08:40:00,31.8,23.1,30.16,ENE,69,16.1,16.1,70,0.00,OVC,,0.00,0.0,WeatherDisplay:10.37,2013-04-10 13:40:00,
2013-04-10 08:45:00,31.9,22.9,30.17,ENE,68,10.4,10.4,69,0.00,OVC,,0.00,0.0,WeatherDisplay:10.37,2013-04-10 13:45:00,
2013-04-10 08:51:00,31.9,22.5,30.17,East,87,16.1,16.1,68,0.00,OVC,,0.00,0.0,WeatherDisplay:10.37,2013-04-10 13:51:00,
2013-04-10 08:56:00,32.1,22.7,30.17,ENE,69,15.0,15.0,68,0.00,OVC,,0.00,0.0,WeatherDisplay:10.37,2013-04-10 13:56:00,
2013-04-10 09:01:00,32.1,22.4,30.17,NNE,29,16.1,16.1,67,0.00,OVC,,0.00,0.0,WeatherDisplay:10.37,2013-04-10 14:01:00,
2013-04-10 09:07:00,32.4,23.0,30.18,NE,48,13.0,13.0,68,0.00,OVC,,0.00,0.0,WeatherDisplay:10.37,2013-04-10 14:07:00,
2013-04-10 09:12:00,32.7,22.6,30.18,NE,54,16.1,16.1,66,0.00,OVC,,0.00,0.0,WeatherDisplay:10.37,2013-04-10 14:12:00,
2013-04-10 09:17:00,32.9,22.8,30.17,ENE,75,9.2,9.2,66,0.00,OVC,,0.00,0.0,WeatherDisplay:10.37,2013-04-10 14:17:00,
2013-04-10 09:22:00,33.2,22.3,30.18,NE,44,17.0,17.0,64,0.00,OVC,,0.00,0.0,WeatherDisplay:10.37,2013-04-10 14:22:00,
2013-04-10 09:27:00,33.1,22.2,30.19,ENE,60,18.4,18.4,64,0.00,OVC,,0.00,0.0,WeatherDisplay:10.37,2013-04-10 14:27:00,
2013-04-10 09:32:00,32.9,22.4,30.19,North,4,15.0,15.0,65,0.00,OVC,,0.00,0.0,WeatherDisplay:10.37,2013-04-10 14:32:00,
2013-04-10 09:37:00,33.2,22.0,30.18,NNE,25,12.7,12.7,63,0.00,OVC,,0.00,0.0,WeatherDisplay:10.37,2013-04-10 14:37:00,
2013-04-10 09:43:00,33.5,21.9,30.19,NE,54,13.8,13.8,62,0.00,OVC,,0.00,0.0,WeatherDisplay:10.37,2013-04-10 14:43:00,
2013-04-10 09:48:00,34.1,22.0,30.19,East,84,9.2,9.2,61,0.00,OVC,,0.00,0.0,WeatherDisplay:10.37,2013-04-10 14:48:00,
2013-04-10 09:53:00,35.0,22.1,30.21,East,85,11.0,11.0,59,0.00,OVC,,0.00,0.0,WeatherDisplay:10.37,2013-04-10 14:53:00,
2013-04-10 09:58:00,34.9,21.6,30.21,ENE,72,13.0,13.0,58,0.00,OVC,,0.00,0.0,WeatherDisplay:10.37,2013-04-10 14:58:00,
2013-04-10 10:03:00,34.7,21.4,30.21,NE,43,11.5,11.5,58,0.00,OVC,,0.00,0.0,WeatherDisplay:10.37,2013-04-10 15:03:00,
2013-04-10 10:08:00,34.7,20.6,30.21,NE,34,11.5,11.5,56,0.00,OVC,,0.00,0.0,WeatherDisplay:10.37,2013-04-10 15:08:00,
2013-04-10 10:13:00,35.0,20.4,30.21,NE,51,10.4,10.4,55,0.00,OVC,,0.00,0.0,WeatherDisplay:10.37,2013-04-10 15:13:00,
2013-04-10 10:18:00,35.8,20.3,30.21,NE,54,10.4,10.4,53,0.00,OVC,,0.00,0.0,WeatherDisplay:10.37,2013-04-10 15:18:00,
2013-04-10 10:24:00,35.9,20.9,30.20,NE,36,13.0,13.0,54,0.00,OVC,,0.00,0.0,WeatherDisplay:10.37,2013-04-10 15:24:00,
2013-04-10 10:29:00,36.2,21.1,30.20,NE,46,11.5,11.5,54,0.00,OVC,,0.00,0.0,WeatherDisplay:10.37,2013-04-10 15:29:00,
2013-04-10 10:34:00,36.2,20.7,30.20,NE,50,13.8,13.8,53,0.00,OVC,,0.00,0.0,WeatherDisplay:10.37,2013-04-10 15:34:00,
2013-04-10 10:39:00,36.8,20.8,30.19,NE,53,8.0,17.0,52,0.00,OVC,OVC,0.00,0.0,WeatherDisplay:10.37,2013-04-10 15:39:00,
2013-04-10 10:44:00,37.3,19.9,30.19,NE,41,19.6,19.6,49,0.00,OVC,,0.00,0.0,WeatherDisplay:10.37,2013-04-10 15:44:00,
2013-04-10 10:49:00,36.9,20.0,30.19,NNE,28,12.0,12.0,50,0.00,OVC,,0.00,0.0,WeatherDisplay:10.37,2013-04-10 15:49:00,
2013-04-10 10:54:00,37.3,20.3,30.19,NE,46,13.8,13.8,50,0.00,OVC,,0.00,0.0,WeatherDisplay:10.37,2013-04-10 15:54:00,
2013-04-10 11:00:00,37.2,19.3,30.19,NNE,33,19.6,19.6,48,0.00,OVC,,0.00,0.0,WeatherDisplay:10.37,2013-04-10 16:00:00,
2013-04-10 11:05:00,36.6,18.7,30.19,ENE,66,11.5,11.5,48,0.00,OVC,,0.00,0.0,WeatherDisplay:10.37,2013-04-10 16:05:00,
2013-04-10 11:10:00,36.6,19.7,30.19,NE,54,15.0,15.0,50,0.00,OVC,,0.00,0.0,WeatherDisplay:10.37,2013-04-10 16:10:00,
2013-04-10 11:15:00,37.3,18.9,30.18,NNE,26,15.0,15.0,47,0.00,OVC,,0.00,0.0,WeatherDisplay:10.37,2013-04-10 16:15:00,
2013-04-10 11:20:00,38.0,19.0,30.18,NNE,21,15.0,15.0,46,0.00,OVC,,0.00,0.0,WeatherDisplay:10.37,2013-04-10 16:20:00,
2013-04-10 11:25:00,37.6,19.2,30.18,ENE,63,15.0,15.0,47,0.00,OVC,,0.00,0.0,WeatherDisplay:10.37,2013-04-10 16:25:00,
2013-04-10 11:30:00,37.9,20.4,30.18,East,92,11.5,11.5,49,0.00,OVC,,0.00,0.0,WeatherDisplay:10.37,2013-04-10 16:30:00,
2013-04-10 11:35:00,37.3,21.7,30.19,NE,42,12.7,12.7,53,0.00,OVC,,0.00,0.0,WeatherDisplay:10.37,2013-04-10 16:35:00,
2013-04-10 11:41:00,37.0,21.9,30.20,NE,44,9.2,9.2,54,0.00,OVC,,0.00,0.0,WeatherDisplay:10.37,2013-04-10 16:41:00,
2013-04-10 11:46:00,36.9,21.8,30.20,NNE,31,18.0,18.0,54,0.00,OVC,,0.00,0.0,WeatherDisplay:10.37,2013-04-10 16:46:00,
2013-04-10 11:51:00,36.5,21.8,30.20,NE,54,11.5,11.5,55,0.00,OVC,,0.00,0.0,WeatherDisplay:10.37,2013-04-10 16:51:00,
2013-04-10 11:56:00,36.6,22.8,30.19,NNE,22,11.5,11.5,57,0.00,OVC,,0.00,0.0,WeatherDisplay:10.37,2013-04-10 16:56:00,
2013-04-10 12:01:00,36.5,22.3,30.20,NE,51,17.3,17.3,56,0.00,OVC,,0.00,0.0,WeatherDisplay:10.37,2013-04-10 17:01:00,
2013-04-10 12:06:00,36.3,22.5,30.20,NNE,20,17.3,17.3,57,0.00,OVC,,0.00,0.0,WeatherDisplay:10.37,2013-04-10 17:06:00,
2013-04-10 12:12:00,36.2,23.2,30.20,North,353,11.5,11.5,59,0.00,OVC,,0.00,0.0,WeatherDisplay:10.37,2013-04-10 17:12:00,
2013-04-10 12:17:00,36.3,23.3,30.20,North,9,13.8,13.8,59,0.00,OVC,,0.00,0.0,WeatherDisplay:10.37,2013-04-10 17:17:00,
2013-04-10 12:22:00,36.3,23.3,30.20,ENE,67,13.8,13.8,59,0.00,OVC,,0.00,0.0,WeatherDisplay:10.37,2013-04-10 17:22:00,
2013-04-10 12:27:00,36.0,23.4,30.20,NNE,15,16.0,16.0,60,0.00,OVC,,0.00,0.0,WeatherDisplay:10.37,2013-04-10 17:27:00,
2013-04-10 12:32:00,36.0,23.4,30.20,NNE,32,18.4,18.4,60,0.00,OVC,,0.00,0.0,WeatherDisplay:10.37,2013-04-10 17:32:00,
2013-04-10 12:37:00,36.0,23.0,30.20,NE,41,15.0,15.0,59,0.00,OVC,,0.00,0.0,WeatherDisplay:10.37,2013-04-10 17:37:00,
2013-04-10 12:42:00,36.2,24.0,30.19,NE,40,12.7,12.7,61,0.00,OVC,,0.00,0.0,WeatherDisplay:10.37,2013-04-10 17:42:00,
2013-04-10 12:48:00,36.5,24.7,30.19,NNE,30,13.0,13.0,62,0.00,OVC,,0.00,0.0,WeatherDisplay:10.37,2013-04-10 17:48:00,
2013-04-10 12:53:00,36.5,24.3,30.19,NNE,30,12.0,12.0,61,0.00,OVC,,0.00,0.0,WeatherDisplay:10.37,2013-04-10 17:53:00,
2013-04-10 12:58:00,36.8,23.4,30.19,East,89,17.3,17.3,58,0.00,OVC,,0.00,0.0,WeatherDisplay:10.37,2013-04-10 17:58:00,
2013-04-10 13:03:00,36.9,23.9,30.18,NE,52,14.0,14.0,59,0.00,OVC,,0.00,0.0,WeatherDisplay:10.37,2013-04-10 18:03:00,
2013-04-10 13:08:00,36.8,23.8,30.18,East,82,13.8,13.8,59,0.00,OVC,,0.00,0.0,WeatherDisplay:10.37,2013-04-10 18:08:00,
2013-04-10 13:13:00,36.9,23.5,30.18,NNE,23,14.0,14.0,58,0.00,OVC,,0.00,0.0,WeatherDisplay:10.37,2013-04-10 18:13:00,
2013-04-10 13:18:00,36.8,23.4,30.17,NNE,33,16.1,16.1,58,0.00,OVC,,0.00,0.0,WeatherDisplay:10.37,2013-04-10 18:18:00,
2013-04-10 13:23:00,36.5,23.5,30.17,North,4,15.0,15.0,59,0.00,OVC,,0.00,0.0,WeatherDisplay:10.37,2013-04-10 18:23:00,
2013-04-10 13:29:00,36.6,23.6,30.17,North,8,13.8,13.8,59,0.00,OVC,,0.00,0.0,WeatherDisplay:10.37,2013-04-10 18:29:00,
2013-04-10 13:34:00,36.5,23.5,30.17,NE,44,16.1,16.1,59,0.00,OVC,,0.00,0.0,WeatherDisplay:10.37,2013-04-10 18:34:00,
2013-04-10 13:39:00,36.3,23.3,30.17,NE,52,17.3,17.3,59,0.00,OVC,,0.00,0.0,WeatherDisplay:10.37,2013-04-10 18:39:00,
2013-04-10 13:44:00,36.6,23.2,30.17,NE,54,12.7,12.7,58,0.00,OVC,,0.00,0.0,WeatherDisplay:10.37,2013-04-10 18:44:00,
2013-04-10 13:49:00,36.5,23.5,30.17,NNE,22,16.1,16.1,59,0.00,OVC,,0.00,0.0,WeatherDisplay:10.37,2013-04-10 18:49:00,
2013-04-10 13:54:00,36.3,22.9,30.17,NNE,33,18.4,18.4,58,0.00,OVC,,0.00,0.0,WeatherDisplay:10.37,2013-04-10 18:54:00,
2013-04-10 13:59:00,36.2,22.8,30.17,NE,46,17.3,17.3,58,0.00,OVC,,0.00,0.0,WeatherDisplay:10.37,2013-04-10 18:59:00,
2013-04-10 14:05:00,36.2,22.8,30.17,NE,35,13.0,13.0,58,0.00,OVC,,0.00,0.0,WeatherDisplay:10.37,2013-04-10 19:05:00,
2013-04-10 14:10:00,36.2,22.8,30.17,NE,44,13.0,13.0,58,0.00,OVC,,0.00,0.0,WeatherDisplay:10.37,2013-04-10 19:10:00,
2013-04-10 14:15:00,36.2,23.6,30.17,NNE,19,17.3,17.3,60,0.00,OVC,,0.00,0.0,WeatherDisplay:10.37,2013-04-10 19:15:00,
2013-04-10 14:20:00,36.0,20.9,30.17,NE,34,18.4,18.4,54,0.00,OVC,,0.00,0.0,WeatherDisplay:10.37,2013-04-10 19:20:00,
2013-04-10 14:25:00,36.2,21.1,30.16,NE,38,18.4,18.4,54,0.00,OVC,,0.00,0.0,WeatherDisplay:10.37,2013-04-10 19:25:00,
2013-04-10 14:30:00,36.3,21.2,30.16,ENE,61,18.4,18.4,54,0.00,OVC,,0.00,0.0,WeatherDisplay:10.37,2013-04-10 19:30:00,
2013-04-10 14:35:00,36.6,21.9,30.15,NE,55,21.9,21.9,55,0.00,OVC,,0.00,0.0,WeatherDisplay:10.37,2013-04-10 19:35:00,
2013-04-10 14:40:00,36.6,20.6,30.16,NE,46,18.4,18.4,52,0.00,OVC,,0.00,0.0,WeatherDisplay:10.37,2013-04-10 19:40:00,
2013-04-10 14:45:00,36.3,20.3,30.16,NNE,13,18.4,18.4,52,0.00,OVC,,0.00,0.0,WeatherDisplay:10.37,2013-04-10 19:45:00,
2013-04-10 14:51:00,36.5,21.4,30.16,NNE,33,20.0,20.0,54,0.00,OVC,,0.00,0.0,WeatherDisplay:10.37,2013-04-10 19:51:00,
2013-04-10 14:56:00,36.2,21.1,30.17,NE,42,17.3,17.3,54,0.00,OVC,,0.00,0.0,WeatherDisplay:10.37,2013-04-10 19:56:00,
2013-04-10 15:01:00,36.5,22.3,30.16,NNE,13,24.2,24.2,56,0.00,OVC,,0.00,0.0,WeatherDisplay:10.37,2013-04-10 20:01:00,
2013-04-10 15:06:00,36.2,22.0,30.16,NE,42,12.0,12.0,56,0.00,OVC,,0.00,0.0,WeatherDisplay:10.37,2013-04-10 20:06:00,
2013-04-10 15:12:00,36.0,21.8,30.17,NE,44,12.7,12.7,56,0.00,OVC,,0.00,0.0,WeatherDisplay:10.37,2013-04-10 20:12:00,
2013-04-10 15:17:00,36.0,21.8,30.16,ENE,68,12.7,12.7,56,0.00,OVC,,0.00,0.0,WeatherDisplay:10.37,2013-04-10 20:17:00,
2013-04-10 15:22:00,36.2,22.0,30.16,NNE,14,16.0,16.0,56,0.00,OVC,,0.00,0.0,WeatherDisplay:10.37,2013-04-10 20:22:00,
2013-04-10 15:27:00,36.2,22.0,30.16,NE,50,18.0,18.0,56,0.00,OVC,,0.00,0.0,WeatherDisplay:10.37,2013-04-10 20:27:00,
2013-04-10 15:33:00,36.0,21.4,30.17,East,81,17.3,17.3,55,0.00,OVC,,0.00,0.0,WeatherDisplay:10.37,2013-04-10 20:33:00,
2013-04-10 15:38:00,35.9,21.7,30.17,NE,46,15.0,15.0,56,0.00,OVC,,0.00,0.0,WeatherDisplay:10.37,2013-04-10 20:38:00,
2013-04-10 15:43:00,36.0,21.8,30.17,NE,43,11.5,11.5,56,0.00,OVC,,0.00,0.0,WeatherDisplay:10.37,2013-04-10 20:43:00,
2013-04-10 15:48:00,36.3,22.9,30.17,NE,36,10.4,10.4,58,0.00,OVC,,0.00,0.0,WeatherDisplay:10.37,2013-04-10 20:48:00,
2013-04-10 15:53:00,36.5,22.3,30.17,NE,48,11.5,11.5,56,0.00,OVC,,0.00,0.0,WeatherDisplay:10.37,2013-04-10 20:53:00,
2013-04-10 15:58:00,36.0,22.6,30.17,NNE,19,11.5,11.5,58,0.00,OVC,,0.00,0.0,WeatherDisplay:10.37,2013-04-10 20:58:00,
2013-04-10 16:03:00,35.8,22.5,30.17,NNE,29,13.0,13.0,58,0.00,OVC,,0.00,0.0,WeatherDisplay:10.37,2013-04-10 21:03:00,
2013-04-10 16:08:00,35.6,22.7,30.17,NNE,32,11.5,11.5,59,0.00,OVC,,0.00,0.0,WeatherDisplay:10.37,2013-04-10 21:08:00,
2013-04-10 16:14:00,35.5,22.6,30.17,NNW,344,16.0,16.0,59,0.00,OVC,,0.00,0.0,WeatherDisplay:10.37,2013-04-10 21:14:00,
2013-04-10 16:19:00,35.3,22.4,30.17,NE,46,10.4,10.4,59,0.00,OVC,,0.00,0.0,WeatherDisplay:10.37,2013-04-10 21:19:00,
2013-04-10 16:24:00,35.2,22.3,30.17,NNE,30,13.8,13.8,59,0.00,OVC,,0.00,0.0,WeatherDisplay:10.37,2013-04-10 21:24:00,
2013-04-10 16:29:00,35.0,22.5,30.17,NNE,33,9.0,16.0,60,0.00,OVC,OVC,0.00,0.0,WeatherDisplay:10.37,2013-04-10 21:29:00,
2013-04-10 16:34:00,35.0,22.1,30.16,ENE,62,11.5,11.5,59,0.00,OVC,,0.00,0.0,WeatherDisplay:10.37,2013-04-10 21:34:00,
2013-04-10 16:39:00,34.9,22.4,30.17,NNE,29,12.7,12.7,60,0.00,OVC,,0.00,0.0,WeatherDisplay:10.37,2013-04-10 21:39:00,
2013-04-10 16:44:00,34.9,22.4,30.16,ENE,67,13.0,13.0,60,0.00,OVC,,0.00,0.0,WeatherDisplay:10.37,2013-04-10 21:44:00,
2013-04-10 16:50:00,34.9,22.0,30.16,NNE,29,12.7,12.7,59,0.00,OVC,,0.00,0.0,WeatherDisplay:10.37,2013-04-10 21:50:00,
2013-04-10 16:55:00,34.7,22.2,30.16,NE,50,11.5,11.5,60,0.00,OVC,,0.00,0.0,WeatherDisplay:10.37,2013-04-10 21:55:00,
2013-04-10 17:00:00,34.6,22.5,30.16,NNE,22,10.4,10.4,61,0.00,OVC,,0.00,0.0,WeatherDisplay:10.37,2013-04-10 22:00:00,
2013-04-10 17:05:00,34.4,22.3,30.16,NE,38,15.0,15.0,61,0.00,OVC,,0.00,0.0,WeatherDisplay:10.37,2013-04-10 22:05:00,
2013-04-10 17:10:00,34.3,21.4,30.16,NNE,25,13.8,13.8,59,0.00,OVC,,0.00,0.0,WeatherDisplay:10.37,2013-04-10 22:10:00,
2013-04-10 17:15:00,34.1,21.7,30.15,NE,36,12.7,12.7,60,0.00,OVC,,0.00,0.0,WeatherDisplay:10.37,2013-04-10 22:15:00,
2013-04-10 17:20:00,34.0,21.2,30.15,NNE,25,16.1,16.1,59,0.00,OVC,,0.00,0.0,WeatherDisplay:10.37,2013-04-10 22:20:00,
2013-04-10 17:25:00,34.0,21.2,30.14,NNE,27,19.6,19.6,59,0.00,OVC,,0.00,0.0,WeatherDisplay:10.37,2013-04-10 22:25:00,
2013-04-10 17:31:00,33.8,20.6,30.14,NNE,16,18.4,18.4,58,0.00,OVC,,0.00,0.0,WeatherDisplay:10.37,2013-04-10 22:31:00,
2013-04-10 17:36:00,33.8,21.0,30.14,NNE,27,10.4,10.4,59,0.00,OVC,,0.00,0.0,WeatherDisplay:10.37,2013-04-10 22:36:00,
2013-04-10 17:41:00,33.8,20.2,30.14,NNE,31,18.4,18.4,57,0.00,OVC,,0.00,0.0,WeatherDisplay:10.37,2013-04-10 22:41:00,
2013-04-10 17:46:00,33.8,21.0,30.13,NE,45,10.4,10.4,59,0.00,OVC,,0.00,0.0,WeatherDisplay:10.37,2013-04-10 22:46:00,
2013-04-10 17:52:00,34.0,20.3,30.12,NE,52,17.3,17.3,57,0.00,OVC,,0.00,0.0,WeatherDisplay:10.37,2013-04-10 22:52:00,
2013-04-10 17:57:00,34.0,20.8,30.12,ENE,78,12.7,12.7,58,0.00,OVC,,0.00,0.0,WeatherDisplay:10.37,2013-04-10 22:57:00,
2013-04-10 18:02:00,34.0,20.3,30.12,NNE,29,13.8,13.8,57,0.00,CLR,OVC,0.00,0.0,WeatherDisplay:10.37,2013-04-10 23:02:00,
2013-04-10 18:07:00,34.0,20.3,30.13,ENE,75,14.0,14.0,57,0.00,CLR,OVC,0.00,0.0,WeatherDisplay:10.37,2013-04-10 23:07:00,
2013-04-10 18:12:00,34.0,20.3,30.13,NNE,32,11.5,11.5,57,0.00,CLR,OVC,0.00,0.0,WeatherDisplay:10.37,2013-04-10 23:12:00,
2013-04-10 18:17:00,34.0,20.3,30.13,NE,38,11.0,11.0,57,0.00,CLR,OVC,0.00,0.0,WeatherDisplay:10.37,2013-04-10 23:17:00,
2013-04-10 18:23:00,34.0,21.2,30.14,NNE,23,12.0,12.0,59,0.00,CLR,OVC,0.00,0.0,WeatherDisplay:10.37,2013-04-10 23:23:00,
2013-04-10 18:28:00,34.0,20.3,30.14,NNE,32,8.1,8.1,57,0.00,CLR,OVC,0.00,0.0,WeatherDisplay:10.37,2013-04-10 23:28:00,
2013-04-10 18:33:00,34.0,20.3,30.13,NE,55,11.5,11.5,57,0.00,CLR,OVC,0.00,0.0,WeatherDisplay:10.37,2013-04-10 23:33:00,
2013-04-10 18:38:00,34.0,19.9,30.13,NNE,27,12.7,12.7,56,0.00,CLR,OVC,0.00,0.0,WeatherDisplay:10.37,2013-04-10 23:38:00,
2013-04-10 18:43:00,34.0,20.3,30.12,NE,55,10.4,10.4,57,0.00,CLR,OVC,0.00,0.0,WeatherDisplay:10.37,2013-04-10 23:43:00,
2013-04-10 18:48:00,34.0,20.3,30.13,ENE,64,5.8,5.8,57,0.00,CLR,OVC,0.00,0.0,WeatherDisplay:10.37,2013-04-10 23:48:00,
2013-04-10 18:53:00,34.0,20.3,30.13,NE,40,13.8,13.8,57,0.00,CLR,OVC,0.00,0.0,WeatherDisplay:10.37,2013-04-10 23:53:00,
2013-04-10 18:59:00,33.8,20.2,30.12,NNE,20,10.4,10.4,57,0.00,CLR,OVC,0.00,0.0,WeatherDisplay:10.37,2013-04-10 23:59:00,
2013-04-10 19:04:00,33.8,20.2,30.12,North,11,9.2,9.2,57,0.00,CLR,OVC,0.00,0.0,WeatherDisplay:10.37,2013-04-11 00:04:00,
2013-04-10 19:09:00,33.8,20.2,30.12,NE,34,9.2,9.2,57,0.00,CLR,OVC,0.00,0.0,WeatherDisplay:10.37,2013-04-11 00:09:00,
2013-04-10 19:14:00,33.8,20.6,30.12,NE,51,11.5,11.5,58,0.00,CLR,OVC,0.00,0.0,WeatherDisplay:10.37,2013-04-11 00:14:00,
2013-04-10 19:19:00,33.7,20.5,30.11,NE,54,8.0,15.0,58,0.00,CLR,OVC,0.00,0.0,WeatherDisplay:10.37,2013-04-11 00:19:00,
2013-04-10 19:24:00,33.7,20.5,30.11,NE,34,8.1,8.1,58,0.00,CLR,OVC,0.00,0.0,WeatherDisplay:10.37,2013-04-11 00:24:00,
2013-04-10 19:29:00,33.5,20.7,30.11,NE,44,8.0,15.0,59,0.00,CLR,OVC,0.00,0.0,WeatherDisplay:10.37,2013-04-11 00:29:00,
2013-04-10 19:34:00,33.4,20.2,30.11,NE,36,13.8,13.8,58,0.00,CLR,OVC,0.00,0.0,WeatherDisplay:10.37,2013-04-11 00:34:00,
2013-04-10 19:39:00,33.4,20.6,30.12,NE,48,9.0,9.0,59,0.00,CLR,OVC,0.00,0.0,WeatherDisplay:10.37,2013-04-11 00:39:00,
2013-04-10 19:44:00,33.2,20.4,30.12,NNE,29,13.0,13.0,59,0.00,CLR,OVC,0.00,0.0,WeatherDisplay:10.37,2013-04-11 00:44:00,
2013-04-10 19:49:00,33.2,20.4,30.11,NE,40,11.5,11.5,59,0.00,CLR,OVC,0.00,0.0,WeatherDisplay:10.37,2013-04-11 00:49:00,
2013-04-10 19:55:00,33.1,20.7,30.11,ENE,61,13.8,13.8,60,0.00,CLR,OVC,0.00,0.0,WeatherDisplay:10.37,2013-04-11 00:55:00,
2013-04-10 20:00:00,33.1,20.7,30.11,ENE,63,12.7,12.7,60,0.00,CLR,OVC,0.00,0.0,WeatherDisplay:10.37,2013-04-11 01:00:00,
2013-04-10 20:05:00,32.9,20.9,30.11,ENE,65,11.5,11.5,61,0.00,CLR,OVC,0.00,0.0,WeatherDisplay:10.37,2013-04-11 01:05:00,
2013-04-10 20:10:00,32.9,20.5,30.11,NE,49,11.5,11.5,60,0.00,CLR,OVC,0.00,0.0,WeatherDisplay:10.37,2013-04-11 01:10:00,
2013-04-10 20:15:00,32.9,20.5,30.11,NE,54,12.7,12.7,60,0.00,CLR,OVC,0.00,0.0,WeatherDisplay:10.37,2013-04-11 01:15:00,
2013-04-10 20:20:00,32.9,20.9,30.10,North,9,11.5,11.5,61,0.00,CLR,OVC,0.00,0.0,WeatherDisplay:10.37,2013-04-11 01:20:00,
2013-04-10 20:25:00,32.8,20.4,30.09,NE,52,11.5,11.5,60,0.00,CLR,OVC,0.00,0.0,WeatherDisplay:10.37,2013-04-11 01:25:00,
2013-04-10 20:30:00,32.8,20.8,30.08,NE,39,11.5,11.5,61,0.00,CLR,OVC,0.00,0.0,WeatherDisplay:10.37,2013-04-11 01:30:00,
2013-04-10 20:36:00,32.7,20.7,30.08,NE,34,13.8,13.8,61,0.00,CLR,OVC,0.00,0.0,WeatherDisplay:10.37,2013-04-11 01:36:00,
2013-04-10 20:41:00,32.7,20.7,30.08,NNE,21,18.0,18.0,61,0.00,CLR,OVC,0.00,0.0,WeatherDisplay:10.37,2013-04-11 01:41:00,
2013-04-10 20:46:00,32.7,20.7,30.08,NE,43,14.0,14.0,61,0.00,CLR,OVC,0.00,0.0,WeatherDisplay:10.37,2013-04-11 01:46:00,
2013-04-10 20:51:00,32.7,20.3,30.08,ENE,58,13.0,13.0,60,0.00,CLR,OVC,0.00,0.0,WeatherDisplay:10.37,2013-04-11 01:51:00,
2013-04-10 20:57:00,32.7,20.3,30.09,NE,38,21.9,21.9,60,0.00,CLR,OVC,0.00,0.0,WeatherDisplay:10.37,2013-04-11 01:57:00,
2013-04-10 21:02:00,32.7,20.7,30.09,ENE,59,19.6,19.6,61,0.00,CLR,OVC,0.00,0.0,WeatherDisplay:10.37,2013-04-11 02:02:00,
2013-04-10 21:07:00,32.7,20.3,30.09,NE,54,19.0,19.0,60,0.00,CLR,OVC,0.00,0.0,WeatherDisplay:10.37,2013-04-11 02:07:00,
2013-04-10 21:12:00,32.7,21.1,30.10,NE,47,11.5,11.5,62,0.00,CLR,OVC,0.00,0.0,WeatherDisplay:10.37,2013-04-11 02:12:00,
2013-04-10 21:17:00,32.7,20.7,30.09,NE,36,19.6,19.6,61,0.00,CLR,OVC,0.00,0.0,WeatherDisplay:10.37,2013-04-11 02:17:00,
2013-04-10 21:22:00,32.7,20.7,30.10,NE,56,15.0,15.0,61,0.00,CLR,OVC,0.00,0.0,WeatherDisplay:10.37,2013-04-11 02:22:00,
2013-04-10 21:27:00,32.7,20.3,30.10,NE,50,16.1,16.1,60,0.00,CLR,OVC,0.00,0.0,WeatherDisplay:10.37,2013-04-11 02:27:00,
2013-04-10 21:33:00,32.7,20.3,30.09,NE,50,18.4,18.4,60,0.00,CLR,OVC,0.00,0.0,WeatherDisplay:10.37,2013-04-11 02:33:00,
2013-04-10 21:38:00,32.7,20.7,30.09,ENE,57,13.8,13.8,61,0.00,CLR,OVC,0.00,0.0,WeatherDisplay:10.37,2013-04-11 02:38:00,
2013-04-10 21:43:00,32.5,20.5,30.08,NNE,30,18.0,18.0,61,0.00,CLR,OVC,0.00,0.0,WeatherDisplay:10.37,2013-04-11 02:43:00,
2013-04-10 21:48:00,32.5,20.5,30.09,ENE,65,16.0,16.0,61,0.00,CLR,OVC,0.00,0.0,WeatherDisplay:10.37,2013-04-11 02:48:00,
2013-04-10 21:53:00,32.5,20.5,30.09,ENE,77,16.1,16.1,61,0.00,CLR,OVC,0.00,0.0,WeatherDisplay:10.37,2013-04-11 02:53:00,
2013-04-10 21:58:00,32.5,20.5,30.10,ENE,75,13.0,13.0,61,0.00,CLR,OVC,0.00,0.0,WeatherDisplay:10.37,2013-04-11 02:58:00,
2013-04-10 22:03:00,32.4,20.0,30.10,NE,38,15.0,15.0,60,0.00,CLR,OVC,0.00,0.0,WeatherDisplay:10.37,2013-04-11 03:03:00,
2013-04-10 22:08:00,32.4,20.0,30.10,ENE,71,14.0,14.0,60,0.00,CLR,OVC,0.00,0.0,WeatherDisplay:10.37,2013-04-11 03:08:00,
2013-04-10 22:14:00,32.4,19.7,30.10,NE,52,13.0,13.0,59,0.00,CLR,OVC,0.00,0.0,WeatherDisplay:10.37,2013-04-11 03:14:00,
2013-04-10 22:19:00,32.4,19.3,30.10,ENE,69,11.5,11.5,58,0.00,CLR,OVC,0.00,0.0,WeatherDisplay:10.37,2013-04-11 03:19:00,
2013-04-10 22:24:00,32.5,19.7,30.11,ENE,68,11.5,11.5,59,0.00,CLR,OVC,0.00,0.0,WeatherDisplay:10.37,2013-04-11 03:24:00,
2013-04-10 22:29:00,32.5,18.9,30.11,ENE,71,8.0,15.0,57,0.00,CLR,OVC,0.00,0.0,WeatherDisplay:10.37,2013-04-11 03:29:00,
2013-04-10 22:34:00,32.5,18.5,30.12,ENE,73,8.1,8.1,56,0.00,CLR,OVC,0.00,0.0,WeatherDisplay:10.37,2013-04-11 03:34:00,
2013-04-10 22:39:00,32.5,17.7,30.11,ENE,63,15.0,15.0,54,0.00,CLR,OVC,0.00,0.0,WeatherDisplay:10.37,2013-04-11 03:39:00,
2013-04-10 22:44:00,32.5,16.8,30.10,ENE,67,16.1,16.1,52,0.00,CLR,OVC,0.00,0.0,WeatherDisplay:10.37,2013-04-11 03:44:00,
2013-04-10 22:50:00,32.5,16.4,30.10,ENE,74,11.5,11.5,51,0.00,CLR,OVC,0.00,0.0,WeatherDisplay:10.37,2013-04-11 03:50:00,
2013-04-10 22:55:00,32.4,15.3,30.10,ENE,69,15.0,15.0,49,0.00,CLR,OVC,0.00,0.0,WeatherDisplay:10.37,2013-04-11 03:55:00,
2013-04-10 23:00:00,32.4,15.3,30.10,NE,53,17.3,17.3,49,0.00,CLR,OVC,0.00,0.0,WeatherDisplay:10.37,2013-04-11 04:00:00,
2013-04-10 23:01:00,32.4,14.9,30.10,NE,50,15.0,15.0,48,0.00,CLR,OVC,0.00,0.0,WeatherDisplay:10.37,2013-04-11 04:01:00,
2013-04-10 23:06:00,32.4,15.8,30.10,ENE,73,13.0,13.0,50,0.00,CLR,OVC,0.00,0.0,WeatherDisplay:10.37,2013-04-11 04:06:00,
2013-04-10 23:11:00,32.4,15.3,30.10,East,89,11.5,11.5,49,0.00,CLR,OVC,0.00,0.0,WeatherDisplay:10.37,2013-04-11 04:11:00,
2013-04-10 23:16:00,32.2,14.7,30.09,ENE,61,19.6,19.6,48,0.00,CLR,OVC,0.00,0.0,WeatherDisplay:10.37,2013-04-11 04:16:00,
2013-04-10 23:21:00,32.2,13.7,30.09,NE,50,10.4,10.4,46,0.00,CLR,OVC,0.00,0.0,WeatherDisplay:10.37,2013-04-11 04:21:00,
2013-04-10 23:26:00,32.1,14.1,30.08,NE,56,13.8,13.8,47,0.00,CLR,OVC,0.00,0.0,WeatherDisplay:10.37,2013-04-11 04:26:00,
2013-04-10 23:32:00,32.1,13.6,30.08,ENE,60,19.6,19.6,46,0.00,CLR,OVC,0.00,0.0,WeatherDisplay:10.37,2013-04-11 04:32:00,
2013-04-10 23:37:00,31.9,12.4,30.07,NE,54,17.3,17.3,44,0.00,CLR,OVC,0.00,0.0,WeatherDisplay:10.37,2013-04-11 04:37:00,
2013-04-10 23:42:00,31.9,13.9,30.07,East,91,15.0,15.0,47,0.00,CLR,OVC,0.00,0.0,WeatherDisplay:10.37,2013-04-11 04:42:00,
2013-04-10 23:47:00,31.8,13.3,30.07,ENE,64,18.4,18.4,46,0.00,CLR,OVC,0.00,0.0,WeatherDisplay:10.37,2013-04-11 04:47:00,
2013-04-10 23:52:00,31.8,13.8,30.06,East,88,17.0,17.0,47,0.00,CLR,OVC,0.00,0.0,WeatherDisplay:10.37,2013-04-11 04:52:00,
2013-04-10 23:57:00,31.8,13.8,30.07,ENE,72,16.1,16.1,47,0.00,CLR,OVC,0.00,0.0,WeatherDisplay:10.37,2013-04-11 04:57:00,